FW4567 Weather Reports


time (UTC)temp
C
wind
direction
speed
KPH
gust
KPH
rain 1hr
cm
rain 24hr
cm
rain mn
cm
humidity
%
barometer
mb
20210624225114 22 50 1.6 4.8 0.00 0.00 0.00 66 1017.1
20210624224554 22 45 1.6 4.8 0.00 0.00 0.00 66 1017.2
20210624224010 22 45 1.6 4.8 0.00 0.00 0.00 66 1017.1
20210624223613 22 44 1.6 4.8 0.00 0.00 0.00 66 1017.1
20210624223105 22 40 1.6 4.8 0.00 0.00 0.00 66 1017.1
20210624222511 22 14 0.0 4.8 0.00 0.00 0.00 66 1017.2
20210624222053 22 12 1.6 4.8 0.00 0.00 0.00 65 1017.1
20210624221519 22 12 1.6 4.8 0.00 0.00 0.00 65 1017.2
20210624221104 22 12 1.6 6.4 0.00 0.00 0.00 65 1017.2
20210624220604 22 12 3.2 6.4 0.00 0.00 0.00 65 1017.2
20210624220116 22 30 3.2 6.4 0.00 0.00 0.00 65 1017.3
20210624215505 22 29 3.2 4.8 0.00 0.00 0.00 65 1017.2
20210624215032 22 12 3.2 8.0 0.00 0.00 0.00 65 1017.2
20210624214525 22 12 3.2 8.0 0.00 0.00 0.00 65 1017.3
20210624214038 22 14 3.2 6.4 0.00 0.00 0.00 65 1017.2
20210624213531 22 4 3.2 8.0 0.00 0.00 0.00 65 1017.2
20210624212550 23 359 4.8 8.0 0.00 0.00 0.00 65 1017.2
20210624212019 22 4 4.8 8.0 0.00 0.00 0.00 65 1017.2
20210624211023 22 359 4.8 8.0 0.00 0.00 0.00 65 1017.1
20210624210504 23 11 3.2 8.0 0.00 0.00 0.00 64 1017.1
20210624210131 23 10 4.8 8.0 0.00 0.00 0.00 64 1017.0
20210624205535 23 330 3.2 6.4 0.00 0.00 0.00 64 1017.1
20210624205001 23 359 3.2 6.4 0.00 0.00 0.00 64 1016.9
20210624204600 23 354 3.2 6.4 0.00 0.00 0.00 63 1016.9
20210624204009 23 335 1.6 8.0 0.00 0.00 0.00 63 1016.8
20210624203502 23 11 3.2 8.0 0.00 0.00 0.00 63 1016.9
20210624203120 23 359 3.2 8.0 0.00 0.00 0.00 63 1016.8
20210624202538 23 339 3.2 8.0 0.00 0.00 0.00 62 1016.8
20210624202013 23 4 3.2 8.0 0.00 0.00 0.00 62 1016.8
20210624201645 23 28 3.2 8.0 0.00 0.00 0.00 62 1016.8
20210624201017 23 359 3.2 9.7 0.00 0.00 0.00 62 1016.9
20210624200129 24 359 3.2 9.7 0.00 0.00 0.00 61 1017.0
20210624195519 24 62 3.2 8.0 0.00 0.00 0.00 60 1017.0
20210624195003 24 350 4.8 12.9 0.00 0.00 0.00 60 1017.1
20210624194710 24 20 4.8 12.9 0.00 0.00 0.00 59 1017.0
20210624194029 24 14 4.8 14.5 0.00 0.00 0.00 59 1016.9
20210624193509 25 8 8.0 14.5 0.00 0.00 0.00 59 1017.0
20210624193224 25 14 4.8 8.0 0.00 0.00 0.00 59 1016.9
20210624192533 25 35 3.2 9.7 0.00 0.00 0.00 59 1016.9
20210624191640 25 359 4.8 9.7 0.00 0.00 0.00 59 1016.9
20210624191005 25 304 4.8 9.7 0.00 0.00 0.00 58 1016.9
20210624190541 25 12 3.2 9.7 0.00 0.00 0.00 58 1016.9
20210624190044 25 43 3.2 8.0 0.00 0.00 0.00 57 1016.9
20210624185028 25 55 4.8 14.5 0.00 0.00 0.00 57 1016.9
20210624184511 25 329 3.2 11.3 0.00 0.00 0.00 57 1016.9
20210624184049 25 40 3.2 11.3 0.00 0.00 0.00 56 1016.9
20210624183549 25 13 3.2 11.3 0.00 0.00 0.00 55 1017.0
20210624183010 25 58 3.2 8.0 0.00 0.00 0.00 55 1016.9
20210624182531 25 32 3.2 9.7 0.00 0.00 0.00 54 1016.8
20210624181525 25 64 3.2 12.9 0.00 0.00 0.00 54 1016.7
20210624181104 25 34 6.4 17.7 0.00 0.00 0.00 53 1016.7
20210624180559 25 354 6.4 17.7 0.00 0.00 0.00 53 1016.7
20210624180049 25 23 6.4 16.1 0.00 0.00 0.00 54 1016.6
20210624175051 26 78 3.2 11.3 0.00 0.00 0.00 53 1016.7
20210624174607 26 95 4.8 11.3 0.00 0.00 0.00 52 1016.6
20210624174104 26 75 3.2 9.7 0.00 0.00 0.00 53 1016.7
20210624173553 26 16 3.2 9.7 0.00 0.00 0.00 53 1016.6
20210624173056 26 155 3.2 16.1 0.00 0.00 0.00 52 1016.6
20210624172600 26 345 6.4 16.1 0.00 0.00 0.00 52 1016.6
20210624172106 26 18 1.6 8.0 0.00 0.00 0.00 53 1016.5
20210624171529 26 105 1.6 8.0 0.00 0.00 0.00 52 1016.7
20210624171057 26 76 3.2 8.0 0.00 0.00 0.00 51 1016.7
20210624170555 26 54 1.6 12.9 0.00 0.00 0.00 51 1016.8
20210624170048 26 345 6.4 12.9 0.00 0.00 0.00 50 1016.9
20210624165535 26 27 3.2 12.9 0.00 0.00 0.00 50 1016.8
20210624165007 26 85 4.8 16.1 0.00 0.00 0.00 50 1016.9
20210624164728 26 285 4.8 16.1 0.00 0.00 0.00 50 1016.9
20210624164042 26 64 6.4 14.5 0.00 0.00 0.00 50 1016.9
20210624163521 26 34 3.2 12.9 0.00 0.00 0.00 50 1017.0
20210624163150 26 154 3.2 9.7 0.00 0.00 0.00 49 1016.9
20210624162543 27 294 4.8 16.1 0.00 0.00 0.00 48 1016.9
20210624162113 27 44 6.4 16.1 0.00 0.00 0.00 49 1016.8
20210624161551 27 221 3.2 11.3 0.00 0.00 0.00 49 1016.9
20210624160551 27 82 4.8 12.9 0.00 0.00 0.00 49 1016.9
20210624160041 27 169 3.2 20.9 0.00 0.00 0.00 49 1016.9
20210624155505 27 349 8.0 20.9 0.00 0.00 0.00 47 1016.9
20210624155048 27 359 6.4 14.5 0.00 0.00 0.00 48 1016.8
20210624154558 27 323 4.8 16.1 0.00 0.00 0.00 48 1017.0
20210624154003 27 58 8.0 16.1 0.00 0.00 0.00 48 1016.9
20210624153551 27 73 1.6 9.7 0.00 0.00 0.00 48 1017.0
20210624153041 27 297 3.2 9.7 0.00 0.00 0.00 48 1017.1
20210624152523 27 31 3.2 9.7 0.00 0.00 0.00 48 1017.1
20210624152051 27 110 3.2 8.0 0.00 0.00 0.00 47 1017.2
20210624151516 27 83 3.2 9.7 0.00 0.00 0.00 48 1017.1
20210624151125 28 31 3.2 11.3 0.00 0.00 0.00 48 1017.2
20210624150550 28 43 3.2 9.7 0.00 0.00 0.00 48 1017.1
20210624150102 27 110 1.6 9.7 0.00 0.00 0.00 48 1017.1
20210624145504 27 52 3.2 12.9 0.00 0.00 0.00 48 1017.2
20210624145101 28 54 4.8 9.7 0.00 0.00 0.00 47 1017.2
20210624144553 28 50 1.6 6.4 0.00 0.00 0.00 48 1017.1
20210624144004 28 129 1.6 9.7 0.00 0.00 0.00 48 1017.2
20210624143518 27 105 3.2 9.7 0.00 0.00 0.00 49 1017.3
20210624143133 27 101 3.2 9.7 0.00 0.00 0.00 49 1017.3
20210624142552 28 65 4.8 16.1 0.00 0.00 0.00 48 1017.4
20210624142036 28 69 1.6 12.9 0.00 0.00 0.00 48 1017.4
20210624141048 28 50 3.2 8.0 0.00 0.00 0.00 48 1017.4
20210624140556 28 71 1.6 12.9 0.00 0.00 0.00 48 1017.5
20210624140135 28 33 4.8 12.9 0.00 0.00 0.00 48 1017.4
20210624135557 28 80 1.6 8.0 0.00 0.00 0.00 47 1017.4
20210624135008 28 24 1.6 6.4 0.00 0.00 0.00 43 1017.2
20210624134611 28 22 1.6 11.3 0.00 0.00 0.00 46 1017.2
20210624134036 27 181 3.2 11.3 0.00 0.00 0.00 45 1017.2
20210624133551 27 160 3.2 11.3 0.00 0.00 0.00 43 1017.3
20210624133102 27 67 4.8 11.3 0.00 0.00 0.00 45 1017.4
20210624132517 28 68 3.2 11.3 0.00 0.00 0.00 46 1017.3
20210624132055 28 201 3.2 9.7 0.00 0.00 0.00 46 1017.3
20210624131639 27 179 3.2 11.3 0.00 0.00 0.00 47 1017.4
20210624131002 27 124 3.2 9.7 0.00 0.00 0.00 48 1017.3
20210624130550 27 31 1.6 14.5 0.00 0.00 0.00 48 1017.3
20210624130107 27 19 4.8 14.5 0.00 0.00 0.00 47 1017.5
20210624125514 27 181 3.2 16.1 0.00 0.00 0.00 47 1017.5
20210624125103 27 188 6.4 16.1 0.00 0.00 0.00 48 1017.5
20210624124606 27 66 3.2 9.7 0.00 0.00 0.00 48 1017.4
20210624124014 27 54 3.2 12.9 0.00 0.00 0.00 49 1017.5
20210624123603 26 50 3.2 12.9 0.00 0.00 0.00 48 1017.5
20210624123057 26 94 3.2 12.9 0.00 0.00 0.00 48 1017.5
20210624122510 26 28 6.4 12.9 0.00 0.00 0.00 48 1017.5
20210624122100 26 154 3.2 14.5 0.00 0.00 0.00 48 1017.6
20210624121617 26 119 4.8 14.5 0.00 0.00 0.00 48 1017.6
20210624120538 26 85 3.2 12.9 0.00 0.00 0.00 49 1017.6
20210624120047 26 77 6.4 16.1 0.00 0.00 0.00 49 1017.7
20210624115556 26 19 6.4 16.1 0.00 0.00 0.00 49 1017.8
20210624115036 26 70 4.8 11.3 0.00 0.00 0.00 50 1017.8
20210624114533 26 102 4.8 14.5 0.00 0.00 0.00 49 1017.8
20210624114057 26 96 8.0 14.5 0.00 0.00 0.00 49 1017.9
20210624113545 26 32 3.2 14.5 0.00 0.00 0.00 51 1017.9
20210624113006 25 129 4.8 17.7 0.00 0.00 0.00 50 1017.9
20210624112550 25 65 6.4 17.7 0.00 0.00 0.00 50 1017.9
20210624112058 25 154 4.8 16.1 0.00 0.00 0.00 51 1018.1
20210624111032 25 97 4.8 14.5 0.00 0.00 0.00 50 1018.1
20210624110515 25 65 4.8 19.3 0.00 0.00 0.00 51 1018.1
20210624110120 25 191 8.0 19.3 0.00 0.00 0.00 51 1018.1
20210624105536 25 131 1.6 11.3 0.00 0.00 0.00 51 1018.1
20210624105011 25 264 4.8 12.9 0.00 0.00 0.00 51 1018.1
20210624104612 24 119 4.8 14.5 0.00 0.00 0.00 52 1018.1
20210624104038 24 328 8.0 14.5 0.00 0.00 0.00 52 1018.2
20210624103509 24 359 4.8 16.1 0.00 0.00 0.00 52 1018.1
20210624103041 24 98 6.4 19.3 0.00 0.00 0.00 52 1018.1
20210624102518 23 55 4.8 19.3 0.00 0.00 0.00 53 1018.0
20210624102049 23 126 4.8 17.7 0.00 0.00 0.00 53 1018.1
20210624101505 23 68 8.0 17.7 0.00 0.00 0.00 54 1018.1
20210624101044 23 120 8.0 16.1 0.00 0.00 0.00 54 1018.1
20210624100533 23 75 4.8 16.1 0.00 0.00 0.00 55 1018.1
20210624100024 23 75 6.4 19.3 0.00 0.00 0.00 54 1018.1
20210624095604 23 21 9.7 19.3 0.00 0.00 0.00 55 1017.9
20210624095035 23 313 8.0 17.7 0.00 0.00 0.00 55 1017.9
20210624094502 22 235 6.4 22.5 0.00 0.00 0.00 56 1017.9
20210624094109 22 74 9.7 22.5 0.00 0.00 0.00 56 1017.9
20210624093552 22 284 8.0 22.5 0.00 0.00 0.00 56 1017.9
20210624093030 22 204 11.3 22.5 0.00 0.00 0.00 56 1017.8
20210624092605 22 50 11.3 24.1 0.00 0.00 0.00 56 1017.9
20210624092043 22 65 8.0 24.1 0.00 0.00 0.00 56 1017.8
20210624091048 22 221 8.0 20.9 0.00 0.00 0.00 57 1017.9
20210624090534 22 107 8.0 19.3 0.00 0.00 0.00 58 1017.9
20210624090127 22 164 4.8 16.1 0.00 0.00 0.00 58 1017.9
20210624085544 21 104 4.8 16.1 0.00 0.00 0.00 59 1018.0
20210624085022 21 192 9.7 16.1 0.00 0.00 0.00 58 1018.1
20210624084659 21 170 4.8 17.7 0.00 0.00 0.00 59 1017.9
20210624084038 21 180 8.0 17.7 0.00 0.00 0.00 60 1018.1
20210624083534 21 146 4.8 20.9 0.00 0.00 0.00 60 1018.0
20210624082516 20 13 11.3 29.0 0.00 0.00 0.00 60 1017.9
20210624082056 20 4 12.9 24.1 0.00 0.00 0.00 60 1017.7
20210624081042 20 31 9.7 20.9 0.00 0.00 0.00 60 1017.7
20210624080524 20 359 9.7 19.3 0.00 0.00 0.00 61 1017.6
20210624080114 20 65 8.0 22.5 0.00 0.00 0.00 61 1017.7
20210624075522 20 359 9.7 22.5 0.00 0.00 0.00 61 1017.8
20210624075056 20 14 11.3 19.3 0.00 0.00 0.00 61 1017.8
20210624074626 20 57 9.7 19.3 0.00 0.00 0.00 62 1017.8
20210624074010 20 173 8.0 19.3 0.00 0.00 0.00 62 1017.7
20210624073559 20 55 6.4 22.5 0.00 0.00 0.00 62 1017.6
20210624073128 19 79 8.0 24.1 0.00 0.00 0.00 62 1017.6